{"data":{"norad_id":58448,"epoch":"2026-05-24T21:30:31.804416Z","epoch_age_seconds":74091,"freshness":"FRESH","line1":"1 58448U 23183M   26144.89620144  .00000278  00000+0  19623-4 0  9998","line2":"2 58448  43.0039 330.8167 0001223 271.2232  88.8479 15.27578230138393","mean_motion":15.2757823,"eccentricity":0.0001223,"inclination_deg":43.0039,"raan_deg":330.8167,"arg_perigee_deg":271.2232,"mean_anomaly_deg":88.8479,"bstar":1.9623e-5,"rev_number":13839,"period_min":94.266857940231,"perigee_km":482.21527235379,"apogee_km":483.89351976926,"semimajor_km":6861.1913960615,"source":"CELESTRAK","updated_at":"2026-05-25T13:38:18.624152Z"}}